Wind_Speed
15 16 16 16 16 16 17 17 18 18 16 14 12 10 9 9 10 11 13 14 15 16 16 18 20 20 21 21 21 21 21 21 22 23 23 23 23 23 24 24 23 21 19
15 15 17 19 18 16 16 16 17 18 16 13 11 11 10 9 10 11 13 14 15 16 16 18 19 20 21 21 22 22 22 22 23 24 25 26 27 27 28 27 25 23 21
17 16 18 19 18 17 16 16 16 16 14 12 11 10 9 9 10 11 13 15 16 16 17 18 18 19 19 19 20 21 22 23 25 26 28 29 31 31 30 30 28 26 25
19 18 19 20 19 17 17 16 15 14 12 11 10 10 9 9 10 10 11 13 15 17 18 18 18 19 20 20 21 22 23 25 26 28 30 31 32 33 33 32 31 29 29
20 19 20 21 20 18 16 15 15 14 12 10 10 10 10 11 11 11 12 12 13 15 17 19 20 21 22 22 23 24 25 27 28 29 31 32 32 33 33 33 33 31 32
21 20 21 22 20 18 16 15 16 14 11 10 9 10 11 12 12 12 14 15 16 16 16 18 20 22 23 23 24 24 25 26 27 27 29 30 30 31 31 31 31 31 32
22 20 22 22 20 17 16 16 16 14 12 11 10 9 10 10 11 12 14 15 17 18 19 21 23 24 26 27 27 28 29 29 30 30 31 31 31 31 31 31 31 31 30
21 20 21 20 19 17 17 17 17 16 14 12 10 9 9 8 7 8 9 12 14 16 18 20 22 24 26 28 28 30 31 32 33 33 34 35 35 35 34 34 34 34 34
19 18 19 19 19 18 18 19 19 18 16 14 12 11 10 9 7 8 10 12 14 15 17 19 20 22 23 24 25 26 28 29 31 33 34 36 37 37 37 37 37 37 37
18 18 19 19 19 19 19 20 20 20 18 17 16 15 15 13 12 13 16 18 20 22 24 25 25 26 27 27 27 28 29 30 31 33 34 35 36 37 37 37 38 38 39
18 19 20 18 17 18 19 21 21 21 21 20 18 18 18 16 15 17 20 22 25 27 29 31 31 32 31 31 31 31 31 33 34 35 36 37 37 38 38 38 39 41 41
20 20 21 19 18 19 20 21 22 23 24 24 22 21 20 19 19 21 23 26 29 30 33 34 34 35 35 35 34 33 32 33 34 35 35 35 36 38 38 38 39 39 39
23 22 23 22 21 21 21 20 21 23 25 26 27 24 23 22 22 24 25 28 30 33 34 33 32 32 32 33 33 32 32 33 34 34 33 32 32 33 34 35 35 36 36
26 25 25 25 25 24 23 20 19 21 24 26 29 28 25 24 25 25 27 30 32 34 32 29 26 26 26 28 29 30 31 33 34 35 35 34 34 34 34 35 36 37 38
26 27 27 27 28 27 24 21 20 21 22 24 27 28 27 27 27 28 31 33 33 32 29 25 24 25 26 27 29 31 34 35 36 36 36 36 36 36 37 38 39 40 41
26 28 30 29 30 29 27 24 23 22 22 22 24 25 27 28 29 31 32 32 33 31 27 25 26 27 29 32 34 36 38 39 40 39 38 38 38 39 39 40 41 42 43
27 29 30 30 30 30 28 26 24 24 22 22 23 23 25 26 27 29 30 32 32 30 28 27 28 31 33 36 38 41 42 43 43 42 40 39 40 40 41 42 43 44 45
28 29 30 31 30 30 28 27 26 25 24 22 22 22 23 24 25 28 30 32 32 31 30 30 32 34 36 38 41 44 44 43 42 40 39 39 40 41 43 44 46 47 47
31 30 30 31 31 30 28 27 27 27 26 23 21 21 22 23 25 28 31 32 32 30 31 32 34 36 38 40 42 42 40 38 38 38 39 40 42 43 45 47 48 50 52
34 31 30 31 31 30 29 27 28 29 27 24 22 22 23 24 27 30 32 31 29 29 32 34 36 37 39 40 40 39 36 37 38 40 41 43 45 47 49 51 53 55 56
36 33 31 31 30 30 29 28 29 30 27 24 24 23 24 26 28 31 30 28 29 32 35 37 38 40 40 39 38 38 39 40 42 43 44 46 49 52 55 57 58 60 61
36 35 32 32 31 30 30 29 28 27 27 26 25 26 26 28 31 32 31 32 34 36 38 39 40 42 41 40 39 39 40 42 45 47 49 52 54 57 59 61 62 63 64
36 36 34 34 34 33 31 29 27 28 29 28 28 29 30 32 34 34 35 36 38 40 41 42 42 42 42 42 42 42 43 44 45 47 52 56 59 60 61 62 62 62 63
37 37 37 36 35 35 32 30 29 29 30 31 31 33 34 35 37 38 38 40 42 43 43 43 43 42 42 43 45 47 50 52 54 53 53 56 59 60 61 61 61 61 63
38 37 38 37 36 34 33 32 32 31 31 32 33 35 37 38 39 40 42 44 44 44 44 44 43 42 43 45 48 51 54 58 61 62 59 59 60 60 60 61 62 64 66
39 38 38 38 37 34 33 34 34 33 33 34 35 37 38 40 41 42 45 46 44 44 44 43 43 44 46 50 53 56 59 62 64 65 64 64 64 62 63 64 66 69 73
Wind_Direction
271 271 279 282 284 289 296 301 303 305 305 304 303 315 320 313 301 286 276 274 272 269 266 263 261 259 260 265 266 265 264 266 269 270 269 273 277 282 283 282 278 270 265
274 273 275 279 283 287 293 297 300 304 302 301 306 312 308 302 294 286 282 280 276 275 274 273 271 267 267 269 271 271 269 269 271 273 273 275 277 279 279 279 280 274 264
274 276 275 277 281 288 292 294 295 299 299 303 307 304 295 292 295 293 283 278 276 276 276 276 275 272 270 271 273 274 274 274 273 274 275 276 278 278 277 276 277 275 267
277 278 278 278 281 287 288 287 288 293 294 298 302 300 296 289 287 292 292 286 279 275 273 273 272 270 269 271 274 277 278 278 278 278 278 279 280 278 276 275 276 273 269
271 275 279 281 283 284 281 281 284 287 287 290 294 300 301 297 289 282 284 289 288 281 275 274 273 272 272 275 277 278 280 280 280 280 282 283 283 282 278 276 275 273 268
264 269 274 277 280 282 280 278 280 283 283 284 285 290 294 296 293 287 281 278 278 280 282 282 281 280 278 278 278 279 280 281 281 283 285 285 284 284 281 277 276 274 269
253 257 264 269 272 275 276 274 275 274 273 274 279 288 292 292 291 291 289 285 283 282 282 282 282 282 280 280 280 280 280 280 281 283 285 285 285 284 282 279 276 276 275
243 247 254 261 267 269 268 268 269 265 263 264 269 279 282 283 287 293 297 298 297 294 291 289 288 287 286 285 284 283 282 282 283 283 283 283 283 283 282 280 278 277 276
236 241 248 256 261 263 264 266 266 261 259 261 261 262 262 264 272 283 291 299 306 307 303 299 297 296 295 295 295 293 292 290 289 288 286 285 284 283 282 281 280 278 277
231 236 244 254 261 265 266 266 265 260 258 260 259 259 258 261 268 276 284 291 296 300 301 301 298 296 294 293 294 294 294 294 293 292 290 287 285 284 282 281 280 279 278
233 235 243 253 264 270 268 265 264 261 260 260 260 259 260 264 268 274 281 290 297 301 301 299 296 294 293 294 294 294 295 297 298 296 292 288 286 284 283 281 279 278 277
237 239 246 253 263 268 269 266 263 262 262 261 260 261 263 267 270 276 285 291 298 303 303 300 298 294 292 292 293 295 297 300 300 298 295 290 287 285 284 283 281 280 280
238 241 247 253 259 264 267 270 265 263 263 262 259 259 265 269 273 280 286 290 297 302 304 305 303 299 294 291 292 294 298 302 303 301 299 296 293 290 288 287 286 285 285
239 242 247 252 255 261 267 270 268 262 261 262 261 259 262 269 276 282 285 290 297 302 304 305 306 303 299 297 298 301 304 306 306 304 302 299 297 295 293 293 293 292 291
243 244 244 247 253 258 263 265 263 260 261 264 264 262 263 271 276 280 284 291 297 299 299 302 305 303 301 301 301 303 305 305 303 301 299 297 294 292 291 291 290 290 290
244 245 243 243 249 254 259 264 263 259 259 263 265 267 268 271 275 280 286 291 294 294 293 296 300 302 302 301 301 302 302 302 301 299 296 294 291 289 288 288 287 287 286
244 246 245 244 248 253 257 263 263 259 257 259 263 266 268 271 275 280 287 290 292 289 288 293 297 299 300 299 299 299 299 298 298 297 294 291 290 289 288 288 286 285 284
243 247 246 245 249 253 256 261 262 258 254 255 259 263 266 270 274 279 285 288 289 287 287 292 295 296 297 297 297 298 298 296 295 294 292 290 289 289 288 288 287 286 285
243 246 246 245 249 253 255 260 261 256 251 251 255 259 264 269 275 279 283 286 289 288 287 290 293 295 298 299 300 301 299 298 296 295 293 292 290 289 289 288 288 288 287
245 246 246 244 247 249 251 256 258 255 249 249 252 259 266 272 276 282 285 286 287 288 289 291 293 296 299 301 301 300 298 296 295 294 293 293 292 292 292 292 292 292 290
243 245 246 245 245 246 247 252 257 254 249 249 254 261 267 273 277 283 285 283 285 288 291 293 295 298 300 300 297 296 296 295 295 295 296 296 296 296 296 295 294 293 292
240 243 246 246 245 245 247 251 258 254 246 250 257 262 269 275 278 282 283 283 287 290 293 295 298 300 300 297 294 293 294 297 299 300 299 298 298 297 297 296 295 294 293
237 241 244 247 245 246 249 251 255 251 248 253 259 265 270 276 279 281 283 286 289 293 295 297 299 299 297 296 295 294 294 294 294 296 298 299 299 298 298 297 296 294 292
236 238 242 245 245 245 248 250 252 253 254 256 260 265 270 275 278 280 283 286 290 294 296 297 298 297 297 298 298 299 299 299 298 297 296 297 297 297 296 295 293 291 289
236 237 240 243 246 246 247 249 251 253 256 259 262 266 270 275 278 280 283 287 291 294 296 297 297 297 298 299 299 299 300 301 301 301 300 299 299 298 296 294 292 289 288
235 236 239 243 246 249 249 250 252 255 258 262 265 268 272 275 278 280 283 289 292 295 296 298 299 300 300 300 299 300 301 301 301 301 301 299 299 297 295 293 290 289 288
Height
5849 5849 5850 5849 5849 5849 5850 5850 5849 5848 5848 5848 5848 5847 5847 5847 5847 5847 5847 5847 5848 5849 5849 5850 5850 5850 5849 5849 5849 5849 5849 5849 5849 5849 5849 5849 5849 5849 5849 5849 5848 5848 5847
5846 5847 5847 5847 5847 5847 5847 5847 5846 5846 5845 5845 5845 5845 5844 5844 5844 5845 5845 5846 5846 5847 5848 5848 5848 5848 5847 5847 5847 5847 5847 5846 5846 5846 5846 5846 5846 5845 5846 5846 5846 5845 5844
5842 5843 5843 5843 5844 5844 5844 5844 5844 5843 5843 5843 5843 5843 5842 5842 5842 5843 5843 5843 5844 5844 5845 5845 5845 5845 5844 5844 5844 5844 5844 5843 5843 5842 5842 5842 5842 5841 5841 5842 5842 5841 5841
5837 5839 5839 5840 5840 5840 5841 5841 5841 5841 5840 5840 5841 5840 5839 5839 5840 5841 5841 5841 5841 5841 5841 5841 5841 5841 5841 5840 5840 5840 5840 5839 5838 5838 5838 5837 5837 5836 5836 5837 5837 5836 5836
5834 5835 5835 5836 5836 5837 5837 5837 5837 5837 5838 5838 5838 5838 5837 5836 5836 5838 5838 5838 5838 5837 5837 5837 5837 5837 5837 5836 5835 5835 5835 5834 5834 5833 5833 5832 5832 5831 5831 5831 5831 5831 5831
5831 5831 5831 5832 5833 5834 5834 5834 5834 5834 5835 5835 5836 5835 5834 5833 5833 5834 5835 5835 5835 5834 5833 5833 5833 5832 5832 5831 5831 5830 5829 5829 5829 5828 5827 5827 5826 5825 5825 5825 5825 5825 5825
5827 5828 5828 5828 5829 5830 5831 5831 5831 5831 5832 5833 5833 5833 5832 5831 5831 5831 5831 5831 5831 5831 5830 5830 5830 5829 5828 5827 5826 5826 5825 5824 5824 5823 5822 5822 5821 5820 5819 5819 5819 5818 5818
5824 5824 5825 5825 5825 5827 5827 5827 5827 5828 5829 5830 5830 5830 5829 5829 5828 5828 5828 5829 5828 5827 5827 5826 5825 5825 5824 5823 5821 5821 5820 5819 5818 5818 5817 5816 5815 5814 5813 5813 5812 5812 5812
5820 5821 5821 5821 5822 5823 5823 5824 5824 5825 5825 5826 5826 5827 5827 5827 5826 5825 5825 5825 5825 5824 5823 5822 5821 5821 5820 5818 5817 5815 5814 5813 5812 5811 5810 5810 5809 5808 5807 5806 5805 5805 5805
5816 5817 5818 5818 5818 5819 5819 5820 5821 5822 5822 5822 5822 5823 5824 5824 5823 5822 5822 5822 5821 5820 5819 5818 5817 5817 5815 5814 5812 5811 5809 5808 5806 5805 5804 5802 5801 5801 5800 5799 5798 5798 5797
5812 5813 5813 5814 5815 5815 5815 5816 5817 5818 5818 5818 5819 5820 5820 5820 5819 5819 5818 5818 5817 5815 5814 5813 5812 5811 5810 5808 5807 5805 5803 5801 5800 5798 5796 5795 5793 5792 5791 5791 5790 5790 5789
5808 5809 5809 5810 5810 5810 5811 5811 5812 5813 5814 5814 5815 5816 5816 5816 5815 5815 5814 5813 5812 5810 5809 5807 5806 5804 5803 5802 5801 5800 5797 5795 5793 5791 5788 5787 5785 5784 5783 5783 5782 5782 5781
5802 5804 5805 5805 5806 5806 5806 5806 5807 5808 5809 5809 5810 5811 5812 5812 5811 5810 5809 5809 5807 5805 5803 5801 5799 5798 5797 5796 5795 5793 5792 5789 5787 5784 5781 5779 5778 5777 5775 5774 5774 5773 5772
5797 5799 5799 5800 5800 5801 5801 5801 5802 5802 5803 5804 5805 5806 5806 5806 5806 5804 5804 5804 5802 5800 5798 5796 5794 5792 5791 5790 5788 5787 5785 5783 5780 5777 5775 5773 5771 5769 5767 5766 5765 5764 5763
5791 5793 5793 5794 5795 5795 5796 5796 5796 5797 5798 5798 5799 5800 5800 5800 5800 5800 5799 5798 5797 5795 5793 5791 5789 5788 5786 5785 5782 5781 5779 5776 5773 5771 5768 5766 5764 5762 5760 5759 5757 5756 5754
5785 5786 5786 5788 5789 5790 5790 5791 5791 5791 5792 5792 5793 5794 5794 5794 5795 5795 5794 5793 5791 5790 5788 5786 5785 5783 5781 5778 5776 5774 5772 5769 5766 5763 5761 5758 5756 5754 5753 5751 5750 5748 5746
5778 5779 5780 5781 5782 5784 5784 5785 5785 5785 5785 5786 5787 5788 5788 5788 5789 5789 5788 5787 5785 5784 5783 5781 5779 5777 5775 5771 5768 5766 5763 5760 5757 5755 5753 5750 5748 5746 5744 5742 5740 5738 5736
5771 5772 5774 5775 5776 5777 5778 5779 5779 5778 5779 5781 5781 5782 5783 5783 5783 5783 5782 5781 5779 5778 5777 5775 5773 5771 5768 5764 5760 5757 5754 5751 5748 5746 5743 5741 5739 5736 5734 5731 5729 5727 5724
5765 5766 5767 5769 5770 5771 5772 5772 5772 5772 5774 5775 5776 5776 5777 5777 5777 5776 5775 5774 5773 5771 5770 5768 5766 5763 5760 5755 5752 5748 5745 5742 5739 5737 5735 5732 5729 5726 5723 5720 5717 5714 5711
5758 5759 5761 5763 5764 5765 5765 5765 5766 5766 5768 5769 5770 5771 5771 5771 5770 5770 5769 5767 5766 5765 5763 5760 5758 5755 5752 5748 5743 5740 5737 5734 5731 5729 5726 5722 5718 5715 5711 5707 5704 5700 5697
5751 5752 5754 5756 5757 5758 5758 5759 5759 5761 5762 5764 5764 5765 5765 5764 5764 5763 5762 5761 5759 5757 5755 5752 5749 5746 5743 5739 5736 5732 5729 5726 5723 5720 5716 5711 5707 5702 5697 5693 5689 5685 5681
5743 5745 5746 5748 5749 5750 5752 5753 5754 5755 5757 5757 5758 5758 5758 5758 5757 5756 5755 5753 5751 5749 5746 5743 5740 5736 5733 5730 5728 5725 5722 5719 5713 5708 5704 5699 5694 5689 5683 5678 5673 5668 5664
5735 5738 5740 5741 5742 5744 5745 5747 5748 5749 5750 5750 5751 5752 5751 5750 5749 5748 5747 5745 5743 5741 5738 5734 5730 5726 5723 5720 5717 5714 5711 5709 5707 5704 5695 5687 5681 5675 5669 5663 5657 5651 5646
5727 5730 5732 5734 5736 5737 5739 5741 5742 5743 5744 5744 5744 5744 5743 5742 5742 5740 5739 5736 5734 5731 5728 5724 5720 5716 5712 5709 5705 5701 5696 5692 5689 5689 5687 5678 5671 5664 5657 5650 5643 5637 5631
5719 5722 5724 5727 5729 5731 5732 5734 5736 5736 5736 5736 5736 5736 5735 5735 5733 5732 5730 5727 5725 5721 5717 5713 5709 5705 5701 5697 5693 5688 5683 5677 5671 5667 5667 5663 5656 5648 5641 5634 5627 5620 5613
5711 5715 5717 5720 5722 5723 5725 5727 5728 5728 5728 5729 5728 5728 5728 5727 5725 5723 5721 5718 5715 5711 5707 5702 5697 5693 5689 5684 5679 5674 5669 5664 5657 5651 5647 5644 5639 5634 5625 5617 5609 5601 5593